TimeCDT,TemperatureF,Dew PointF,Humidity,Sea Level PressureIn,VisibilityMPH,Wind Direction,Wind SpeedMPH,Gust SpeedMPH,PrecipitationIn,Events,Conditions,WindDirDegrees,DateUTC
12:15 AM,46.4,35.6,66,30.22,10.0,ENE,4.6,-,N/A,,Overcast,60,2012-10-08 05:15:00
12:35 AM,46.4,35.6,66,30.22,10.0,Calm,Calm,-,N/A,,Overcast,0,2012-10-08 05:35:00
12:55 AM,46.4,35.6,66,30.22,10.0,Calm,Calm,-,N/A,,Overcast,0,2012-10-08 05:55:00
1:15 AM,46.4,35.6,66,30.22,10.0,Calm,Calm,-,N/A,,Overcast,0,2012-10-08 06:15:00
1:35 AM,46.4,35.6,66,30.22,10.0,Calm,Calm,-,N/A,,Overcast,0,2012-10-08 06:35:00
1:55 AM,46.4,35.6,66,30.23,10.0,Calm,Calm,-,N/A,,Overcast,0,2012-10-08 06:55:00
2:15 AM,46.4,37.4,71,30.22,10.0,NNW,3.5,-,N/A,,Overcast,340,2012-10-08 07:15:00
2:35 AM,46.4,37.4,71,30.22,10.0,North,3.5,-,N/A,,Overcast,360,2012-10-08 07:35:00
2:55 AM,46.4,37.4,71,30.22,10.0,NNW,3.5,-,N/A,,Overcast,340,2012-10-08 07:55:00
3:15 AM,46.4,37.4,71,30.21,10.0,North,4.6,-,N/A,,Overcast,350,2012-10-08 08:15:00
3:35 AM,46.4,37.4,71,30.21,10.0,NW,3.5,-,N/A,,Overcast,320,2012-10-08 08:35:00
3:55 AM,46.4,37.4,71,30.21,10.0,North,3.5,-,N/A,,Overcast,360,2012-10-08 08:55:00
4:15 AM,46.4,35.6,66,30.21,10.0,North,3.5,-,N/A,,Overcast,350,2012-10-08 09:15:00
4:55 AM,46.4,35.6,66,30.21,10.0,North,4.6,-,N/A,,Overcast,10,2012-10-08 09:55:00
5:15 AM,46.4,35.6,66,30.21,10.0,North,5.8,-,N/A,,Overcast,10,2012-10-08 10:15:00
5:35 AM,46.4,35.6,66,30.21,10.0,North,4.6,-,N/A,,Overcast,360,2012-10-08 10:35:00
5:55 AM,44.6,35.6,71,30.22,10.0,North,3.5,-,N/A,,Overcast,360,2012-10-08 10:55:00
6:15 AM,42.8,35.6,76,30.22,10.0,North,4.6,-,N/A,,Scattered Clouds,350,2012-10-08 11:15:00
6:35 AM,41.0,35.6,81,30.22,10.0,North,3.5,-,N/A,,Partly Cloudy,360,2012-10-08 11:35:00
6:55 AM,39.2,35.6,87,30.22,10.0,North,3.5,-,N/A,,Scattered Clouds,10,2012-10-08 11:55:00
7:15 AM,39.2,35.6,87,30.23,10.0,NNE,3.5,-,N/A,,Mostly Cloudy,20,2012-10-08 12:15:00
7:35 AM,42.8,35.6,76,30.23,10.0,NE,3.5,-,N/A,,Overcast,50,2012-10-08 12:35:00
7:55 AM,42.8,35.6,76,30.24,10.0,NNE,3.5,-,N/A,,Overcast,30,2012-10-08 12:55:00
8:15 AM,44.6,35.6,71,30.24,10.0,North,3.5,-,N/A,,Overcast,360,2012-10-08 13:15:00
8:35 AM,44.6,33.8,66,30.24,10.0,North,3.5,-,N/A,,Overcast,10,2012-10-08 13:35:00
8:55 AM,46.4,33.8,62,30.24,10.0,North,3.5,-,N/A,,Overcast,10,2012-10-08 13:55:00
9:15 AM,46.4,35.6,66,30.25,10.0,Calm,Calm,-,N/A,,Overcast,0,2012-10-08 14:15:00
9:55 AM,50.0,35.6,58,30.25,10.0,Calm,Calm,-,N/A,,Overcast,0,2012-10-08 14:55:00
10:15 AM,51.8,35.6,54,30.25,10.0,Variable,3.5,-,N/A,,Mostly Cloudy,0,2012-10-08 15:15:00
10:35 AM,51.8,35.6,54,30.24,10.0,Calm,Calm,-,N/A,,Clear,0,2012-10-08 15:35:00
10:55 AM,53.6,35.6,51,30.24,10.0,SSE,4.6,-,N/A,,Clear,150,2012-10-08 15:55:00
11:15 AM,53.6,35.6,51,30.23,10.0,ENE,5.8,-,N/A,,Scattered Clouds,60,2012-10-08 16:15:00
11:35 AM,53.6,37.4,54,30.22,-9999.0,East,5.8,-,N/A,,Unknown,100,2012-10-08 16:35:00
11:55 AM,55.4,37.4,51,30.21,-9999.0,SE,4.6,-,N/A,,Unknown,130,2012-10-08 16:55:00
12:15 PM,55.4,37.4,51,30.21,-9999.0,ESE,4.6,-,N/A,,Unknown,110,2012-10-08 17:15:00
12:55 PM,59.0,39.2,48,30.19,-9999.0,SE,4.6,-,N/A,,Unknown,130,2012-10-08 17:55:00
1:15 PM,59.0,41.0,51,30.18,10.0,Calm,Calm,-,N/A,,Mostly Cloudy,0,2012-10-08 18:15:00
1:35 PM,62.6,42.8,48,30.17,10.0,SSW,8.1,-,N/A,,Mostly Cloudy,210,2012-10-08 18:35:00
1:55 PM,60.8,42.8,52,30.16,10.0,Variable,3.5,-,N/A,,Partly Cloudy,0,2012-10-08 18:55:00
2:15 PM,62.6,44.6,52,30.14,10.0,SSW,3.5,-,N/A,,Clear,210,2012-10-08 19:15:00
2:35 PM,64.4,44.6,49,30.13,10.0,Variable,3.5,-,N/A,,Clear,0,2012-10-08 19:35:00
3:15 PM,64.4,44.6,49,30.11,-9999.0,South,5.8,-,N/A,,Unknown,170,2012-10-08 20:15:00
3:35 PM,64.4,44.6,49,30.11,-9999.0,ENE,4.6,-,N/A,,Unknown,70,2012-10-08 20:35:00
3:55 PM,66.2,46.4,49,30.10,-9999.0,SSE,5.8,-,N/A,,Unknown,150,2012-10-08 20:55:00
4:15 PM,66.2,46.4,49,30.09,10.0,Variable,3.5,-,N/A,,Clear,0,2012-10-08 21:15:00
4:35 PM,68.0,46.4,46,30.08,10.0,SSE,5.8,-,N/A,,Clear,150,2012-10-08 21:35:00
4:55 PM,68.0,48.2,49,30.07,10.0,SE,10.4,-,N/A,,Clear,130,2012-10-08 21:55:00
5:15 PM,69.8,48.2,46,30.07,10.0,South,6.9,-,N/A,,Clear,170,2012-10-08 22:15:00
5:35 PM,68.0,50.0,52,30.07,10.0,South,9.2,-,N/A,,Clear,190,2012-10-08 22:35:00
5:55 PM,68.0,50.0,52,30.06,10.0,South,9.2,-,N/A,,Clear,190,2012-10-08 22:55:00
6:15 PM,66.2,48.2,52,30.06,10.0,SE,9.2,-,N/A,,Clear,140,2012-10-08 23:15:00
6:35 PM,66.2,48.2,52,30.06,10.0,SE,8.1,-,N/A,,Clear,140,2012-10-08 23:35:00
6:55 PM,64.4,48.2,56,30.06,10.0,SSE,4.6,-,N/A,,Clear,150,2012-10-08 23:55:00
7:15 PM,62.6,48.2,59,30.06,10.0,SE,4.6,-,N/A,,Clear,130,2012-10-09 00:15:00
7:35 PM,62.6,48.2,59,30.06,10.0,ESE,4.6,-,N/A,,Clear,120,2012-10-09 00:35:00
7:55 PM,60.8,48.2,63,30.06,10.0,ESE,3.5,-,N/A,,Clear,120,2012-10-09 00:55:00
8:15 PM,60.8,48.2,63,30.05,10.0,ESE,5.8,-,N/A,,Clear,120,2012-10-09 01:15:00
9:15 PM,59.0,48.2,67,30.06,10.0,SE,6.9,-,N/A,,Clear,130,2012-10-09 02:15:00
10:15 PM,55.4,48.2,77,30.05,10.0,SE,5.8,-,N/A,,Clear,140,2012-10-09 03:15:00
10:35 PM,55.4,48.2,77,30.05,10.0,SE,6.9,-,N/A,,Clear,140,2012-10-09 03:35:00
10:55 PM,55.4,48.2,77,30.06,10.0,SE,5.8,-,N/A,,Clear,140,2012-10-09 03:55:00
11:35 PM,55.4,48.2,77,30.05,10.0,SSE,6.9,-,N/A,,Clear,150,2012-10-09 04:35:00
11:55 PM,55.4,48.2,77,30.05,10.0,SSE,6.9,-,N/A,,Clear,160,2012-10-09 04:55:00